Date String (YYYY-MM-DD hh:mm:ss) UTC,Instrument flags,absolute air pressure of the measurement (hPa),sample flow rate (lpm),inlet stack bypass flow (lpm),air temperature of the measurement (°C),ambient temperature measured by the external sensor (°C),aerosol sample conditioner tube jacket temperature (°C),OPC LED temperature (°C),internal box temperature (°C),relative humidity of the measurement (%),span deviation,mass concentration of particles derived from Lorenz-Mie calculation of OPC scattering (μg/m³),mass concentration of particles derived from Lorenz-Mie calculation of OPC scattering (μg/m³),mass concentration of particles derived from Lorenz-Mie calculation of OPC scattering (μg/m³)
DateTimeUTC,F1_M11,P_M11,Q1_M11,Q2_M11,T1_M11,T2_M11,T3_M11,T4_M11,T5_M11,U1_M11,ZSPAN_M11,X0_M11,X2_M11,X1_M11
2024-04-14 10:00:00,SystemResetWarning,0827.7,5.01,000.00,025.6,024.8,000.0,034.1,027.4,011.7,0000.0,0012.99,0004.09,0002.59
2024-04-14 10:01:00,SystemResetWarning,0827.8,5.00,000.00,025.6,024.8,000.0,034.1,027.4,011.8,0000.0,0012.27,0004.08,0002.58
2024-04-14 10:02:00,SystemResetWarning,0827.7,5.00,000.00,025.6,024.8,000.0,034.1,027.4,011.8,0000.0,0011.04,0004.07,0002.56
2024-04-14 10:03:00,SystemResetWarning,0827.8,4.99,000.00,025.6,024.8,000.0,034.1,027.4,011.8,0000.0,0011.03,0004.06,0002.57
2024-04-14 10:04:00,SystemResetWarning,0827.9,4.99,000.00,025.6,024.8,000.0,034.1,027.4,011.7,0000.0,0011.80,0004.12,0002.61
2024-04-14 10:05:00,SystemResetWarning,0827.8,4.99,000.00,025.6,024.8,000.0,034.1,027.4,011.7,0000.0,0012.09,0004.15,0002.62
2024-04-14 10:06:00,SystemResetWarning,0827.8,5.01,000.00,025.6,024.8,000.0,034.0,027.3,011.7,0000.0,0012.20,0004.11,0002.62
2024-04-14 10:07:00,SystemResetWarning,0827.8,5.01,000.00,025.6,024.8,000.0,034.0,027.3,011.8,0000.0,0011.50,0004.05,0002.61
2024-04-14 10:08:00,SystemResetWarning,0827.8,5.00,000.00,025.6,024.8,000.0,034.0,027.3,011.7,0000.0,0011.35,0004.04,0002.62
2024-04-14 10:09:00,SystemResetWarning,0827.8,4.99,000.00,025.6,024.8,000.0,034.0,027.3,011.7,0000.0,0011.77,0004.10,0002.64
2024-04-14 10:10:00,SystemResetWarning,0827.8,4.99,000.00,025.6,024.8,000.0,034.0,027.3,011.7,0000.0,0011.93,0004.13,0002.63
2024-04-14 10:11:00,SystemResetWarning,0827.8,5.00,000.00,025.6,024.8,000.0,034.0,027.3,011.7,0000.0,0011.78,0004.10,0002.64
2024-04-14 10:12:00,SystemResetWarning,0827.8,5.01,000.00,025.5,024.8,000.0,034.0,027.3,011.6,0000.0,0011.38,0004.06,0002.64
2024-04-14 10:13:00,SystemResetWarning,0827.8,5.00,000.00,025.5,024.8,000.0,034.0,027.3,011.6,0000.0,0011.91,0004.05,0002.64
2024-04-14 10:14:00,SystemResetWarning,0827.8,4.99,000.00,025.5,024.8,000.0,034.0,027.3,011.6,0000.0,0011.98,0004.02,0002.62
2024-04-14 10:15:00,SystemResetWarning,0827.8,5.01,000.00,025.5,024.8,000.0,034.0,027.3,011.7,0000.0,0011.18,0003.97,0002.59
2024-04-14 10:16:00,SystemResetWarning,0827.9,5.01,000.00,025.5,024.7,000.0,034.0,027.3,011.7,0000.0,0010.91,0003.95,0002.59
2024-04-14 10:17:00,SystemResetWarning,0827.9,5.00,000.00,025.5,024.7,000.0,034.0,027.3,011.7,0000.0,0010.45,0003.95,0002.59
2024-04-14 10:18:00,SystemResetWarning,0827.8,5.00,000.00,025.5,024.7,000.0,034.0,027.3,011.7,0000.0,0010.28,0003.97,0002.57
2024-04-14 10:19:00,SystemResetWarning,0827.8,5.00,000.00,025.5,024.7,000.0,034.0,027.3,011.7,0000.0,0010.45,0003.99,0002.54
2024-04-14 10:20:00,SystemResetWarning,0827.8,4.99,000.00,025.5,024.7,000.0,034.0,027.3,011.6,0000.0,0010.19,0003.96,0002.54
2024-04-14 10:21:00,SystemResetWarning,0827.8,4.99,000.00,025.5,024.7,000.0,034.0,027.3,011.7,0000.0,0010.28,0003.96,0002.54
2024-04-14 10:22:00,SystemResetWarning,0827.8,5.00,000.00,025.5,024.7,000.0,034.0,027.3,011.6,0000.0,0010.34,0003.95,0002.51
2024-04-14 10:23:00,SystemResetWarning,0827.8,5.01,000.00,025.5,024.7,000.0,034.0,027.3,011.7,0000.0,0010.98,0003.96,0002.49
2024-04-14 10:24:00,SystemResetWarning,0827.8,5.01,000.00,025.5,024.7,000.0,034.0,027.3,011.6,0000.0,0010.73,0003.94,0002.48
2024-04-14 10:25:00,SystemResetWarning,0827.8,5.00,000.00,025.5,024.7,000.0,033.9,027.3,011.6,0000.0,0011.29,0003.93,0002.48
2024-04-14 10:26:00,SystemResetWarning,0827.8,5.00,000.00,025.5,024.7,000.0,033.9,027.3,011.6,0000.0,0011.12,0003.87,0002.47
2024-04-14 10:27:00,SystemResetWarning,0827.8,5.00,000.00,025.5,024.7,000.0,033.9,027.3,011.6,0000.0,0011.81,0003.85,0002.45
2024-04-14 10:28:00,SystemResetWarning,0827.8,5.00,000.00,025.5,024.7,000.0,033.9,027.3,011.6,0000.0,0012.21,0003.90,0002.46
2024-04-14 10:29:00,SystemResetWarning,0827.8,5.00,000.00,025.5,024.7,000.0,033.9,027.3,011.6,0000.0,0012.49,0003.89,0002.46
2024-04-14 10:30:00,SystemResetWarning,0827.9,4.99,000.00,025.5,024.7,000.0,033.9,027.3,011.6,0000.0,0013.30,0003.84,0002.45
2024-04-14 10:31:00,SystemResetWarning,0827.8,5.00,000.00,025.5,024.7,000.0,033.9,027.3,011.7,0000.0,0013.11,0003.83,0002.43
2024-04-14 10:32:00,SystemResetWarning,0828.0,4.99,000.00,025.5,024.7,000.0,033.9,027.3,011.7,0000.0,0012.87,0003.84,0002.44
2024-04-14 10:33:00,SystemResetWarning,0827.8,5.02,000.00,025.5,024.7,000.0,033.9,027.3,011.6,0000.0,0013.80,0003.88,0002.46
2024-04-14 10:34:00,SystemResetWarning,0827.8,4.99,000.00,025.5,024.7,000.0,033.9,027.2,011.6,0000.0,0013.56,0003.89,0002.48
2024-04-14 10:35:00,SystemResetWarning,0827.8,4.99,000.00,025.5,024.7,000.0,033.9,027.3,011.6,0000.0,0013.99,0003.97,0002.49
2024-04-14 10:36:00,SystemResetWarning,0827.9,5.01,000.00,025.5,024.7,000.0,033.9,027.3,011.6,0000.0,0013.30,0003.97,0002.48
2024-04-14 10:37:00,SystemResetWarning,0827.8,5.01,000.00,025.5,024.7,000.0,033.9,027.3,011.5,0000.0,0013.30,0003.99,0002.49
2024-04-14 10:38:00,SystemResetWarning,0827.8,4.99,000.00,025.5,024.7,000.0,033.9,027.3,011.5,0000.0,0013.73,0004.00,0002.51
2024-04-14 10:39:00,SystemResetWarning,0827.8,4.99,000.00,025.5,024.7,000.0,033.9,027.3,011.6,0000.0,0013.81,0003.97,0002.50
2024-04-14 10:40:00,SystemResetWarning,0827.9,4.99,000.00,025.5,024.7,000.0,033.9,027.2,011.6,0000.0,0014.81,0004.02,0002.51
2024-04-14 10:41:00,SystemResetWarning,0827.9,5.00,000.00,025.5,024.7,000.0,033.9,027.2,011.5,0000.0,0013.93,0004.08,0002.52
2024-04-14 10:42:00,SystemResetWarning,0827.8,5.01,000.00,025.5,024.7,000.0,033.9,027.3,011.5,0000.0,0013.74,0004.07,0002.52
2024-04-14 10:43:00,SystemResetWarning,0827.8,5.01,000.00,025.5,024.7,000.0,033.9,027.3,011.4,0000.0,0013.97,0004.04,0002.51
2024-04-14 10:44:00,SystemResetWarning,0827.8,5.01,000.00,025.4,024.7,000.0,033.9,027.2,011.4,0000.0,0013.52,0004.05,0002.50
2024-04-14 10:45:00,SystemResetWarning,0827.8,5.00,000.00,025.4,024.7,000.0,033.9,027.2,011.5,0000.0,0013.05,0004.00,0002.49
2024-04-14 10:46:00,SystemResetWarning,0827.8,5.00,000.00,025.4,024.7,000.0,033.9,027.2,011.5,0000.0,0012.77,0003.91,0002.49
2024-04-14 10:47:00,SystemResetWarning,0827.8,5.00,000.00,025.4,024.7,000.0,033.9,027.2,011.5,0000.0,0012.75,0003.90,0002.50
2024-04-14 10:48:00,SystemResetWarning,0827.8,5.00,000.00,025.4,024.7,000.0,033.9,027.2,011.4,0000.0,0012.84,0003.92,0002.50
2024-04-14 10:49:00,SystemResetWarning,0827.8,5.01,000.00,025.4,024.7,000.0,033.9,027.2,011.4,0000.0,0012.07,0003.95,0002.50
2024-04-14 10:50:00,SystemResetWarning,0827.8,5.01,000.00,025.4,024.7,000.0,033.9,027.2,011.4,0000.0,0012.07,0004.00,0002.50
2024-04-14 10:51:00,SystemResetWarning,0827.9,4.99,000.00,025.4,024.7,000.0,033.9,027.2,011.5,0000.0,0010.75,0003.96,0002.48
2024-04-14 10:52:00,SystemResetWarning,0827.8,4.99,000.00,025.4,024.7,000.0,033.9,027.2,011.5,0000.0,0010.48,0003.88,0002.46
2024-04-14 10:53:00,SystemResetWarning,0827.8,4.99,000.00,025.4,024.7,000.0,033.9,027.2,011.5,0000.0,0010.66,0003.92,0002.45
2024-04-14 10:54:00,SystemResetWarning,0827.8,5.00,000.00,025.4,024.7,000.0,033.9,027.2,011.4,0000.0,0010.75,0003.93,0002.44
2024-04-14 10:55:00,SystemResetWarning,0827.8,5.00,000.00,025.4,024.7,000.0,033.9,027.2,011.5,0000.0,0010.47,0003.88,0002.43
2024-04-14 10:56:00,SystemResetWarning,0827.8,5.00,000.00,025.4,024.7,000.0,033.9,027.2,011.5,0000.0,0010.53,0003.91,0002.42
2024-04-14 10:57:00,SystemResetWarning,0827.9,4.99,000.00,025.4,024.6,000.0,033.9,027.2,011.5,0000.0,0010.55,0003.98,0002.41
2024-04-14 10:58:00,SystemResetWarning,0827.9,5.00,000.00,025.4,024.6,000.0,033.9,027.2,011.5,0000.0,0010.20,0004.00,0002.40
2024-04-14 10:59:00,SystemResetWarning,0828.0,5.01,000.00,025.4,024.6,000.0,033.8,027.2,011.5,0000.0,0010.41,0004.03,0002.40
